User: anonymous   Login
Location: Iola
(37.9240°N, 95.4000°W)
Time: 00:18:56
(UTC-05:00)
Language:

Meteor 2-10 Rocket - Orbit

View from above orbital plane
View from above orbital plane
View from above satellite
View from above satellite

Ground track
Ground track

The orbit data is extracted from the following two-line orbital elements,

1 14453U 83109B   16270.73882488  .00000038  00000-0  98061-5 0  9992
2 14453  81.1699  11.3249 0106052 105.7769 255.5135 14.24656215710013
Epoch (UTC): 26 September 2016 17:43:54
Eccentricity: 0.0106052
inclination: 81.1699°
perigee height: 733 km
apogee height: 886 km
right ascension of ascending node: 11.3249°
argument of perigee: 105.7769°
revolutions per day: 14.24656215
mean anomaly at epoch: 255.5135°
orbit number at epoch: 71001

The dashed part of the orbit path shows where the satellite is in the earth's shadow,  

DLR